Tracking 17694 objects as of 30-May-2016
HD Live streaming from Space Station
objects crossing your sky now

MINOTAUR R/B

Track MINOTAUR R/B now!
10-day predictions


NORAD ID: 26066
Int'l Code: 2000-004F
Perigee: 750.5 km
Apogee: 797.0 km
Inclination: 100.2 °
Period: 100.2 minutes
Semi major axis: 7144 km
RCS: 1.5369 m2 (large)
Launch date: January 27, 2000
Source: United States (US)
Launch site: AIR FORCE WESTERN TEST RANGE (AFWTR)

Note: This is a ROCKET BODY
Your satellite tracking list
Your tracking list is empty





NASA's NSSDC Master Catalog

Two Line Element Set (TLE):
1 26066U 00004F   16151.49187093  .00000012  00000-0  23889-4 0  9996
2 26066 100.1975  90.4130 0032514 285.8854 184.5832 14.37540884856955
Source of the keplerian elements: AFSPC

N2YO: 593